Volver al catálogo

TEVEL2-3

ActivoRadioaficionadoSSO
NORAD 63218·PAYLOAD·🇮🇱 Israel

Lanzado Mar 15, 2025 desde Vandenberg Space Force Base

Loading…

Próximos Pases (próximas 24 horas)

TLE

ActualizadoSource: AMSAT

Época: Sep 14, 2026, 03:17 UTC

1 63218U 25052J   26257.13691659  .00014256  00000-0  39975-3 0  9990
2 63218  97.3740 153.2516 0003583 130.0894 230.0664 15.36689120 83743

Sigue TEVEL2-3 en tiempo real con AllMySat

Download on the App Store